,,,PA_Meas_PMT16A,,PR_Meas_QMR101_102,,RH_Meas_QMH101,,SR_Meas_QMS101,,TA_Meas_QMH101,,GenWind,,GenWind,
date,time,status,PA,status,PR,status,RH,status,SR,status,TA,status,DirAvg,status,SpdAvg,
2012-02-11, 00:00:04,VALID,1000.8,VALID,0,VALID,93.4552,VALID,0,VALID,23.5841,VALID,85,VALID,0.572656,
2012-02-11, 00:01:04,VALID,1000.81,VALID,0,VALID,93.4857,VALID,0,VALID,23.5823,VALID,85,VALID,0.645703,
2012-02-11, 00:02:04,VALID,1000.8,VALID,0,VALID,93.4781,VALID,0,VALID,23.6232,VALID,85,VALID,0.613281,
2012-02-11, 00:03:04,VALID,1000.82,VALID,0,VALID,93.4476,VALID,0,VALID,23.6019,VALID,85,VALID,0.573047,
2012-02-11, 00:04:04,VALID,1000.83,VALID,0,VALID,93.4094,VALID,0,VALID,23.5841,VALID,85,VALID,0.546875,
2012-02-11, 00:05:04,VALID,1000.83,VALID,0,VALID,93.3713,VALID,0,VALID,23.5841,VALID,85,VALID,0.652344,
2012-02-11, 00:06:04,VALID,1000.83,VALID,0,VALID,93.3408,VALID,0,VALID,23.5646,VALID,85,VALID,0.519922,
2012-02-11, 00:07:04,VALID,1000.81,VALID,0,VALID,93.3103,VALID,0,VALID,23.5256,VALID,85,VALID,0.601563,
2012-02-11, 00:08:04,VALID,1000.82,VALID,0,VALID,93.3331,VALID,0,VALID,23.5043,VALID,85,VALID,0.415234,
2012-02-11, 00:09:04,VALID,1000.83,VALID,0,VALID,93.3637,VALID,0,VALID,23.4848,VALID,85,VALID,0.355859,
2012-02-11, 00:10:04,VALID,1000.78,VALID,0,VALID,93.3408,VALID,0,VALID,23.4653,VALID,85,VALID,0.373437,
2012-02-11, 00:11:04,VALID,1000.79,VALID,0,VALID,93.3331,VALID,0,VALID,23.4475,VALID,85,VALID,0.369141,
2012-02-11, 00:12:04,VALID,1000.78,VALID,0,VALID,93.2568,VALID,0,VALID,23.4085,VALID,85,VALID,0.432813,
2012-02-11, 00:13:04,VALID,1000.75,VALID,0,VALID,93.2645,VALID,0,VALID,23.35,VALID,85,VALID,0.447266,
2012-02-11, 00:14:04,VALID,1000.72,VALID,0,VALID,93.1958,VALID,0,VALID,23.311,VALID,85,VALID,0.603906,
2012-02-11, 00:15:04,VALID,1000.69,VALID,0,VALID,93.234,VALID,0,VALID,23.2524,VALID,85,VALID,0.445703,
2012-02-11, 00:16:04,VALID,1000.69,VALID,0,VALID,93.2263,VALID,0,VALID,23.2134,VALID,85,VALID,0.398047,
2012-02-11, 00:17:04,VALID,1000.65,VALID,0,VALID,93.2416,VALID,0,VALID,23.1744,VALID,85,VALID,0.553516,
2012-02-11, 00:18:04,VALID,1000.62,VALID,0,VALID,93.3408,VALID,0,VALID,23.1744,VALID,85,VALID,0.530469,
2012-02-11, 00:19:04,VALID,1000.64,VALID,0,VALID,93.5086,VALID,0,VALID,23.1939,VALID,85,VALID,0.565625,
2012-02-11, 00:20:04,VALID,1000.62,VALID,0,VALID,93.5544,VALID,0,VALID,23.1921,VALID,85,VALID,0.576953,
2012-02-11, 00:21:04,VALID,1000.58,VALID,0,VALID,93.6307,VALID,0,VALID,23.2117,VALID,85,VALID,0.491406,
2012-02-11, 00:22:04,VALID,1000.59,VALID,0,VALID,93.7146,VALID,0,VALID,23.2524,VALID,85,VALID,0.312109,
2012-02-11, 00:23:04,VALID,1000.57,VALID,0,VALID,93.7146,VALID,0,VALID,23.2524,VALID,85,VALID,0.264453,
2012-02-11, 00:24:04,VALID,1000.55,VALID,0,VALID,93.6536,VALID,0,VALID,23.2312,VALID,85,VALID,0,
2012-02-11, 00:25:04,VALID,1000.59,VALID,0,VALID,93.646,VALID,0,VALID,23.2312,VALID,85,VALID,0,
2012-02-11, 00:26:04,VALID,1000.55,VALID,0,VALID,93.6383,VALID,0,VALID,23.2524,VALID,85,VALID,0.166406,
2012-02-11, 00:27:04,VALID,1000.56,VALID,0,VALID,93.6307,VALID,0,VALID,23.2117,VALID,85,VALID,0.288281,
2012-02-11, 00:28:04,VALID,1000.52,VALID,0,VALID,93.5391,VALID,0,VALID,23.1744,VALID,85,VALID,0.414063,
2012-02-11, 00:29:04,VALID,1000.49,VALID,0,VALID,93.4857,VALID,0,VALID,23.1549,VALID,85,VALID,0.282813,
2012-02-11, 00:30:04,VALID,1000.51,VALID,0,VALID,93.4323,VALID,0,VALID,23.0964,VALID,85,VALID,0.373828,
2012-02-11, 00:31:04,VALID,1000.48,VALID,0,VALID,93.4781,VALID,0,VALID,23.0946,VALID,85,VALID,0.0121094,
2012-02-11, 00:32:04,VALID,1000.46,VALID,0,VALID,93.5086,VALID,0,VALID,23.0751,VALID,85,VALID,0,
2012-02-11, 00:33:04,VALID,1000.47,VALID,0,VALID,93.5239,VALID,0.104696,VALID,23.0556,VALID,85,VALID,0,
2012-02-11, 00:34:04,VALID,1000.43,VALID,0,VALID,93.5544,VALID,0.104696,VALID,23.0769,VALID,85,VALID,0,
2012-02-11, 00:35:04,VALID,1000.4,VALID,0,VALID,93.6231,VALID,0,VALID,23.0964,VALID,85,VALID,0,
2012-02-11, 00:36:04,VALID,1000.37,VALID,0,VALID,93.6841,VALID,0.104696,VALID,23.0964,VALID,85,VALID,0,
2012-02-11, 00:37:04,VALID,1000.34,VALID,0,VALID,93.6765,VALID,0,VALID,23.0964,VALID,85,VALID,0,
2012-02-11, 00:38:04,VALID,1000.34,VALID,0,VALID,93.6536,VALID,0,VALID,23.0769,VALID,85,VALID,0,
2012-02-11, 00:39:04,VALID,1000.34,VALID,0,VALID,93.646,VALID,0,VALID,23.0573,VALID,85,VALID,0,
2012-02-11, 00:40:04,VALID,1000.29,VALID,0,VALID,93.707,VALID,0,VALID,23.0556,VALID,85,VALID,0,
2012-02-11, 00:41:04,VALID,1000.28,VALID,0,VALID,93.7299,VALID,0,VALID,23.0769,VALID,85,VALID,0,
2012-02-11, 00:42:04,VALID,1000.25,VALID,0,VALID,93.768,VALID,0,VALID,23.0769,VALID,85,VALID,0,
2012-02-11, 00:43:04,VALID,1000.24,VALID,0,VALID,93.7833,VALID,0,VALID,23.0964,VALID,85,VALID,0,
2012-02-11, 00:44:04,VALID,1000.2,VALID,0,VALID,93.8672,VALID,0,VALID,23.1354,VALID,85,VALID,0.573438,
2012-02-11, 00:45:04,VALID,1000.17,VALID,0,VALID,94.0122,VALID,0,VALID,23.2134,VALID,85,VALID,0.626562,
2012-02-11, 00:46:04,VALID,1000.13,VALID,0,VALID,94.1037,VALID,0,VALID,23.2702,VALID,85,VALID,0.730469,
2012-02-11, 00:47:04,VALID,1000.15,VALID,0,VALID,94.1419,VALID,0,VALID,23.3305,VALID,103,VALID,0.942187,
2012-02-11, 00:48:04,VALID,1000.07,VALID,0,VALID,94.1266,VALID,0,VALID,23.3695,VALID,103,VALID,1.20977,
2012-02-11, 00:49:04,VALID,1000.1,VALID,0,VALID,94.0885,VALID,0,VALID,23.3695,VALID,96,VALID,1.27969,
2012-02-11, 00:50:04,VALID,1000.04,VALID,0,VALID,94.0045,VALID,0,VALID,23.35,VALID,90,VALID,1.37578,
2012-02-11, 00:51:04,VALID,1000.03,VALID,0,VALID,93.9511,VALID,0,VALID,23.35,VALID,87,VALID,1.1168,
2012-02-11, 00:52:04,VALID,1000,VALID,0,VALID,93.8443,VALID,0,VALID,23.35,VALID,88,VALID,1.2043,
2012-02-11, 00:53:04,VALID,999.967,VALID,0,VALID,93.8214,VALID,0,VALID,23.3092,VALID,88,VALID,0.876953,
2012-02-11, 00:54:04,VALID,999.959,VALID,0,VALID,93.7451,VALID,0,VALID,23.3092,VALID,88,VALID,0.549609,
2012-02-11, 00:55:04,VALID,999.903,VALID,0,VALID,93.6917,VALID,0,VALID,23.311,VALID,88,VALID,0.556641,
2012-02-11, 00:56:04,VALID,999.906,VALID,0,VALID,93.6917,VALID,0,VALID,23.2702,VALID,88,VALID,0.615625,
2012-02-11, 00:57:04,VALID,999.871,VALID,0,VALID,93.6765,VALID,0,VALID,23.2915,VALID,88,VALID,0.628516,
2012-02-11, 00:58:04,VALID,999.831,VALID,0,VALID,93.6994,VALID,0,VALID,23.311,VALID,88,VALID,0.660937,
2012-02-11, 00:59:04,VALID,999.841,VALID,0,VALID,93.7451,VALID,0,VALID,23.3305,VALID,88,VALID,0.589844,
2012-02-11, 01:00:04,VALID,999.8,VALID,0,VALID,93.7375,VALID,0,VALID,23.3305,VALID,88,VALID,0.449609,
2012-02-11, 01:01:04,VALID,999.823,VALID,0,VALID,93.6765,VALID,0,VALID,23.311,VALID,88,VALID,0.449609,
2012-02-11, 01:02:04,VALID,999.79,VALID,0,VALID,93.6231,VALID,0,VALID,23.2915,VALID,88,VALID,0.364062,
2012-02-11, 01:03:04,VALID,999.786,VALID,0,VALID,93.5697,VALID,0,VALID,23.2524,VALID,88,VALID,0.0558594,
2012-02-11, 01:04:04,VALID,999.797,VALID,0,VALID,93.4705,VALID,0,VALID,23.2134,VALID,88,VALID,0,
2012-02-11, 01:05:04,VALID,999.781,VALID,0,VALID,93.4781,VALID,0,VALID,23.1744,VALID,88,VALID,0,
2012-02-11, 01:06:04,VALID,999.831,VALID,0,VALID,93.4628,VALID,0,VALID,23.1354,VALID,88,VALID,0.204688,
2012-02-11, 01:07:04,VALID,999.847,VALID,0,VALID,93.501,VALID,0,VALID,23.1354,VALID,88,VALID,0,
2012-02-11, 01:08:04,VALID,999.848,VALID,0,VALID,93.5697,VALID,0,VALID,23.1354,VALID,88,VALID,0,
2012-02-11, 01:09:04,VALID,999.843,VALID,0,VALID,93.6307,VALID,0,VALID,23.1354,VALID,88,VALID,0,
2012-02-11, 01:10:04,VALID,999.86,VALID,0,VALID,93.6078,VALID,0,VALID,23.1159,VALID,88,VALID,0,
2012-02-11, 01:11:04,VALID,999.83,VALID,0,VALID,93.5315,VALID,0,VALID,23.0573,VALID,88,VALID,0,
2012-02-11, 01:12:04,VALID,999.842,VALID,0,VALID,93.5239,VALID,0,VALID,22.9988,VALID,88,VALID,0,
2012-02-11, 01:13:04,VALID,999.808,VALID,0,VALID,93.5391,VALID,0,VALID,22.9793,VALID,88,VALID,0,
2012-02-11, 01:14:04,VALID,999.793,VALID,0,VALID,93.5468,VALID,0,VALID,22.919,VALID,88,VALID,0,
2012-02-11, 01:15:04,VALID,999.791,VALID,0,VALID,93.5544,VALID,0,VALID,22.9208,VALID,88,VALID,0,
2012-02-11, 01:16:04,VALID,999.799,VALID,0,VALID,93.5544,VALID,0,VALID,22.8818,VALID,88,VALID,0,
2012-02-11, 01:17:04,VALID,999.764,VALID,0,VALID,93.5315,VALID,0,VALID,22.8427,VALID,88,VALID,0,
2012-02-11, 01:18:04,VALID,999.73,VALID,0,VALID,93.5391,VALID,0,VALID,22.8427,VALID,88,VALID,0,
2012-02-11, 01:19:04,VALID,999.749,VALID,0,VALID,93.6383,VALID,0,VALID,22.8623,VALID,88,VALID,0,
2012-02-11, 01:20:04,VALID,999.723,VALID,0,VALID,93.7604,VALID,0,VALID,22.88,VALID,88,VALID,0,
2012-02-11, 01:21:04,VALID,999.703,VALID,0,VALID,93.9206,VALID,0,VALID,22.9598,VALID,96,VALID,0.660937,
2012-02-11, 01:22:04,VALID,999.736,VALID,0,VALID,94.0122,VALID,0,VALID,23.0183,VALID,108,VALID,0.825781,
2012-02-11, 01:23:04,VALID,999.711,VALID,0,VALID,94.0732,VALID,0,VALID,23.0361,VALID,108,VALID,0.854688,
2012-02-11, 01:24:04,VALID,999.709,VALID,0,VALID,94.1037,VALID,0,VALID,23.0964,VALID,107,VALID,0.555859,
2012-02-11, 01:25:04,VALID,999.717,VALID,0,VALID,94.0656,VALID,0,VALID,23.0964,VALID,107,VALID,0.576172,
2012-02-11, 01:26:04,VALID,999.719,VALID,0,VALID,94.0351,VALID,0,VALID,23.1159,VALID,107,VALID,0.546094,
2012-02-11, 01:27:04,VALID,999.682,VALID,0,VALID,94.0122,VALID,0,VALID,23.1159,VALID,107,VALID,0.463672,
2012-02-11, 01:28:04,VALID,999.695,VALID,0,VALID,94.0122,VALID,0,VALID,23.0946,VALID,107,VALID,0.609766,
2012-02-11, 01:29:04,VALID,999.717,VALID,0,VALID,93.9969,VALID,0,VALID,23.1354,VALID,107,VALID,0.750781,
2012-02-11, 01:30:04,VALID,999.673,VALID,0,VALID,93.974,VALID,0,VALID,23.1354,VALID,102,VALID,0.724219,
2012-02-11, 01:31:04,VALID,999.679,VALID,0,VALID,93.9435,VALID,0,VALID,23.1744,VALID,102,VALID,0.477734,
2012-02-11, 01:32:04,VALID,999.654,VALID,0,VALID,93.913,VALID,0,VALID,23.1336,VALID,102,VALID,0.505078,
2012-02-11, 01:33:04,VALID,999.642,VALID,0,VALID,93.8367,VALID,0,VALID,23.1549,VALID,102,VALID,0.587891,
2012-02-11, 01:34:04,VALID,999.621,VALID,0,VALID,93.8062,VALID,0,VALID,23.1549,VALID,102,VALID,0.635156,
2012-02-11, 01:35:04,VALID,999.591,VALID,0,VALID,93.7757,VALID,0,VALID,23.1336,VALID,102,VALID,0.60625,
2012-02-11, 01:36:04,VALID,999.572,VALID,0,VALID,93.7146,VALID,0,VALID,23.1354,VALID,102,VALID,0.661328,
2012-02-11, 01:37:04,VALID,999.533,VALID,0,VALID,93.7146,VALID,0,VALID,23.1141,VALID,103,VALID,0.789844,
2012-02-11, 01:38:04,VALID,999.539,VALID,0,VALID,93.6917,VALID,0,VALID,23.1159,VALID,112,VALID,0.930859,
2012-02-11, 01:39:04,VALID,999.534,VALID,0,VALID,93.6841,VALID,0,VALID,23.0946,VALID,117,VALID,0.893359,
2012-02-11, 01:40:04,VALID,999.551,VALID,0,VALID,93.6917,VALID,0,VALID,23.1354,VALID,117,VALID,0.454688,
2012-02-11, 01:41:04,VALID,999.543,VALID,0,VALID,93.646,VALID,0,VALID,23.0946,VALID,117,VALID,0.453516,
2012-02-11, 01:42:04,VALID,999.518,VALID,0,VALID,93.6002,VALID,0,VALID,23.0751,VALID,117,VALID,0.519141,
2012-02-11, 01:43:04,VALID,999.532,VALID,0,VALID,93.5773,VALID,0,VALID,23.0556,VALID,117,VALID,0.228125,
2012-02-11, 01:44:05,VALID,999.505,VALID,0,VALID,93.5849,VALID,0,VALID,23.0573,VALID,117,VALID,0.559766,
2012-02-11, 01:45:05,VALID,999.493,VALID,0,VALID,93.6231,VALID,0.104696,VALID,23.0573,VALID,117,VALID,0.413281,
2012-02-11, 01:46:05,VALID,999.496,VALID,0,VALID,93.5849,VALID,0,VALID,23.0361,VALID,117,VALID,0.396094,
2012-02-11, 01:47:05,VALID,999.446,VALID,0,VALID,93.5926,VALID,0,VALID,23.0166,VALID,77,VALID,0.582812,
2012-02-11, 01:48:05,VALID,999.439,VALID,0,VALID,93.5391,VALID,0,VALID,23.0183,VALID,77,VALID,0.512109,
2012-02-11, 01:49:05,VALID,999.411,VALID,0,VALID,93.5849,VALID,0,VALID,22.9988,VALID,77,VALID,0.561328,
2012-02-11, 01:50:05,VALID,999.411,VALID,0,VALID,93.6841,VALID,0,VALID,23.0378,VALID,78,VALID,0.748828,
2012-02-11, 01:51:05,VALID,999.435,VALID,0,VALID,93.6841,VALID,0,VALID,23.0573,VALID,94,VALID,0.544922,
2012-02-11, 01:52:05,VALID,999.444,VALID,0,VALID,93.7299,VALID,0,VALID,23.0769,VALID,94,VALID,0.340234,
2012-02-11, 01:53:05,VALID,999.437,VALID,0,VALID,93.7146,VALID,0,VALID,23.0769,VALID,94,VALID,0,
2012-02-11, 01:54:05,VALID,999.429,VALID,0,VALID,93.6841,VALID,0,VALID,23.0769,VALID,94,VALID,0.404297,
2012-02-11, 01:55:05,VALID,999.422,VALID,0,VALID,93.646,VALID,0,VALID,23.0964,VALID,113,VALID,0.409375,
2012-02-11, 01:56:05,VALID,999.406,VALID,0,VALID,93.6307,VALID,0,VALID,23.0769,VALID,113,VALID,0.221094,
2012-02-11, 01:57:05,VALID,999.395,VALID,0,VALID,93.5849,VALID,0,VALID,23.0769,VALID,113,VALID,0.330078,
2012-02-11, 01:58:05,VALID,999.404,VALID,0,VALID,93.5773,VALID,0,VALID,23.0769,VALID,113,VALID,0.257813,
2012-02-11, 01:59:05,VALID,999.386,VALID,0,VALID,93.5163,VALID,0,VALID,23.0769,VALID,113,VALID,0.0183594,
2012-02-11, 02:00:05,VALID,999.405,VALID,0,VALID,93.501,VALID,0,VALID,23.0573,VALID,113,VALID,0,
2012-02-11, 02:01:05,VALID,999.424,VALID,0,VALID,93.5239,VALID,0,VALID,23.0573,VALID,113,VALID,0,
2012-02-11, 02:02:05,VALID,999.424,VALID,0,VALID,93.5773,VALID,0,VALID,23.0573,VALID,111,VALID,0.557031,
2012-02-11, 02:03:05,VALID,999.399,VALID,0,VALID,93.6154,VALID,0,VALID,23.0964,VALID,106,VALID,0.735156,
2012-02-11, 02:04:05,VALID,999.383,VALID,0,VALID,93.5926,VALID,0,VALID,23.0769,VALID,106,VALID,0.604688,
2012-02-11, 02:05:05,VALID,999.364,VALID,0,VALID,93.5544,VALID,0,VALID,23.0964,VALID,106,VALID,0.625,
2012-02-11, 02:06:05,VALID,999.367,VALID,0,VALID,93.5239,VALID,0,VALID,23.0964,VALID,106,VALID,0.480469,
2012-02-11, 02:07:05,VALID,999.344,VALID,0,VALID,93.4934,VALID,0,VALID,23.0964,VALID,106,VALID,0.453125,
2012-02-11, 02:08:05,VALID,999.339,VALID,0,VALID,93.4934,VALID,0,VALID,23.0964,VALID,106,VALID,0.523047,
2012-02-11, 02:09:05,VALID,999.339,VALID,0,VALID,93.4781,VALID,0,VALID,23.0964,VALID,106,VALID,0.465234,
2012-02-11, 02:10:05,VALID,999.351,VALID,0,VALID,93.4476,VALID,0,VALID,23.0981,VALID,106,VALID,0.499219,
2012-02-11, 02:11:05,VALID,999.325,VALID,0,VALID,93.44,VALID,0,VALID,23.0981,VALID,106,VALID,0.272266,
2012-02-11, 02:12:05,VALID,999.315,VALID,0,VALID,93.3866,VALID,0,VALID,23.0981,VALID,106,VALID,0,
2012-02-11, 02:13:05,VALID,999.278,VALID,0,VALID,93.3789,VALID,0,VALID,23.0786,VALID,106,VALID,0,
2012-02-11, 02:14:05,VALID,999.278,VALID,0,VALID,93.4171,VALID,0,VALID,23.0769,VALID,112,VALID,0,
2012-02-11, 02:15:05,VALID,999.248,VALID,0,VALID,93.4094,VALID,0,VALID,23.0573,VALID,112,VALID,0,
2012-02-11, 02:16:05,VALID,999.245,VALID,0,VALID,93.3866,VALID,0,VALID,23.0573,VALID,112,VALID,0,
2012-02-11, 02:17:05,VALID,999.245,VALID,0,VALID,93.4018,VALID,0,VALID,23.0769,VALID,112,VALID,0,
2012-02-11, 02:18:05,VALID,999.214,VALID,0,VALID,93.4247,VALID,0,VALID,23.0964,VALID,112,VALID,0,
2012-02-11, 02:19:05,VALID,999.193,VALID,0,VALID,93.4018,VALID,0.104696,VALID,23.0751,VALID,112,VALID,0,
2012-02-11, 02:20:05,VALID,999.22,VALID,0,VALID,93.356,VALID,0,VALID,23.0751,VALID,112,VALID,0,
2012-02-11, 02:21:05,VALID,999.17,VALID,0,VALID,93.2874,VALID,0,VALID,23.0751,VALID,112,VALID,0,
2012-02-11, 02:22:05,VALID,999.204,VALID,0,VALID,93.2187,VALID,0.104696,VALID,23.0556,VALID,112,VALID,0,
2012-02-11, 02:23:05,VALID,999.171,VALID,0,VALID,93.0508,VALID,0,VALID,22.9776,VALID,112,VALID,0,
2012-02-11, 02:24:05,VALID,999.133,VALID,0,VALID,93.0203,VALID,0.104696,VALID,22.9385,VALID,112,VALID,0,
2012-02-11, 02:25:05,VALID,999.122,VALID,0,VALID,93.0737,VALID,0,VALID,22.9403,VALID,112,VALID,0,
2012-02-11, 02:26:05,VALID,999.073,VALID,0,VALID,93.1424,VALID,0,VALID,22.919,VALID,112,VALID,0,
2012-02-11, 02:27:05,VALID,999.068,VALID,0,VALID,93.2721,VALID,0.104696,VALID,22.919,VALID,112,VALID,0,
2012-02-11, 02:28:05,VALID,999.062,VALID,0,VALID,93.4094,VALID,0,VALID,22.9385,VALID,112,VALID,0,
2012-02-11, 02:29:05,VALID,999.05,VALID,0,VALID,93.5315,VALID,0.104696,VALID,22.9581,VALID,112,VALID,0,
2012-02-11, 02:30:05,VALID,999.088,VALID,0,VALID,93.3789,VALID,0,VALID,22.9385,VALID,112,VALID,0,
2012-02-11, 02:31:05,VALID,999.115,VALID,0,VALID,93.234,VALID,0,VALID,22.88,VALID,112,VALID,0,
2012-02-11, 02:32:05,VALID,999.123,VALID,0,VALID,93.2263,VALID,0,VALID,22.8623,VALID,112,VALID,0,
2012-02-11, 02:33:05,VALID,999.121,VALID,0,VALID,93.3026,VALID,0,VALID,22.841,VALID,112,VALID,0,
2012-02-11, 02:34:05,VALID,999.143,VALID,0,VALID,93.4094,VALID,0,VALID,22.8623,VALID,112,VALID,0,
2012-02-11, 02:35:05,VALID,999.134,VALID,0,VALID,93.501,VALID,0,VALID,22.8818,VALID,112,VALID,0,
2012-02-11, 02:36:05,VALID,999.126,VALID,0,VALID,93.5468,VALID,0,VALID,22.9225,VALID,112,VALID,0,
2012-02-11, 02:37:05,VALID,999.089,VALID,0,VALID,93.5926,VALID,0,VALID,22.9403,VALID,112,VALID,0,
2012-02-11, 02:38:05,VALID,999.085,VALID,0,VALID,93.6078,VALID,0,VALID,22.9403,VALID,112,VALID,0,
2012-02-11, 02:39:05,VALID,999.075,VALID,0,VALID,93.5468,VALID,0,VALID,22.9598,VALID,112,VALID,0,
2012-02-11, 02:40:05,VALID,999.077,VALID,0,VALID,93.4934,VALID,0,VALID,22.9811,VALID,112,VALID,0,
2012-02-11, 02:41:05,VALID,999.074,VALID,0,VALID,93.4094,VALID,0,VALID,22.9403,VALID,112,VALID,0,
2012-02-11, 02:42:05,VALID,999.072,VALID,0,VALID,93.3866,VALID,0,VALID,22.9403,VALID,112,VALID,0,
2012-02-11, 02:43:05,VALID,999.078,VALID,0,VALID,93.356,VALID,0,VALID,22.9208,VALID,112,VALID,0,
2012-02-11, 02:44:05,VALID,999.093,VALID,0,VALID,93.3408,VALID,0,VALID,22.9208,VALID,112,VALID,0,
2012-02-11, 02:45:05,VALID,999.049,VALID,0,VALID,93.3637,VALID,0,VALID,22.9013,VALID,112,VALID,0,
2012-02-11, 02:46:05,VALID,999.017,VALID,0,VALID,93.3637,VALID,0,VALID,22.9208,VALID,112,VALID,0,
2012-02-11, 02:47:05,VALID,999.019,VALID,0,VALID,93.3866,VALID,0,VALID,22.9013,VALID,112,VALID,0,
2012-02-11, 02:48:05,VALID,999.002,VALID,0,VALID,93.3866,VALID,0,VALID,22.903,VALID,94,VALID,0,
2012-02-11, 02:49:05,VALID,998.981,VALID,0,VALID,93.4552,VALID,0,VALID,22.9225,VALID,74,VALID,0,
2012-02-11, 02:50:05,VALID,998.972,VALID,0,VALID,93.4476,VALID,0,VALID,22.9225,VALID,74,VALID,0,
2012-02-11, 02:51:05,VALID,998.974,VALID,0,VALID,93.4323,VALID,0,VALID,22.9225,VALID,74,VALID,0,
2012-02-11, 02:52:05,VALID,998.959,VALID,0,VALID,93.4247,VALID,0,VALID,22.9225,VALID,74,VALID,0,
2012-02-11, 02:53:05,VALID,998.952,VALID,0,VALID,93.4018,VALID,0,VALID,22.8818,VALID,74,VALID,0,
2012-02-11, 02:54:05,VALID,998.911,VALID,0,VALID,93.3637,VALID,0,VALID,22.8835,VALID,74,VALID,0,
2012-02-11, 02:55:05,VALID,998.899,VALID,0,VALID,93.3713,VALID,0,VALID,22.8427,VALID,74,VALID,0,
2012-02-11, 02:56:05,VALID,998.845,VALID,0,VALID,93.3255,VALID,0,VALID,22.864,VALID,74,VALID,0,
2012-02-11, 02:57:05,VALID,998.854,VALID,0,VALID,93.3484,VALID,0,VALID,22.8232,VALID,74,VALID,0,
2012-02-11, 02:58:05,VALID,998.88,VALID,0,VALID,93.3637,VALID,0,VALID,22.825,VALID,74,VALID,0,
2012-02-11, 02:59:05,VALID,998.846,VALID,0,VALID,93.295,VALID,0,VALID,22.8055,VALID,74,VALID,0,
2012-02-11, 03:00:05,VALID,998.843,VALID,0,VALID,93.2797,VALID,0,VALID,22.7469,VALID,74,VALID,0,
2012-02-11, 03:01:05,VALID,998.83,VALID,0,VALID,93.2645,VALID,0,VALID,22.7079,VALID,74,VALID,0,
2012-02-11, 03:02:05,VALID,998.792,VALID,0,VALID,93.356,VALID,0,VALID,22.6477,VALID,74,VALID,0,
2012-02-11, 03:03:05,VALID,998.791,VALID,0,VALID,93.4323,VALID,0,VALID,22.6477,VALID,74,VALID,0,
2012-02-11, 03:04:05,VALID,998.787,VALID,0,VALID,93.4934,VALID,0,VALID,22.646,VALID,74,VALID,0,
2012-02-11, 03:05:05,VALID,998.795,VALID,0,VALID,93.5926,VALID,0,VALID,22.6477,VALID,74,VALID,0,
2012-02-11, 03:06:05,VALID,998.832,VALID,0,VALID,93.6765,VALID,0,VALID,22.646,VALID,74,VALID,0,
2012-02-11, 03:07:05,VALID,998.826,VALID,0,VALID,93.562,VALID,0,VALID,22.6087,VALID,74,VALID,0,
2012-02-11, 03:08:05,VALID,998.819,VALID,0,VALID,93.6078,VALID,0,VALID,22.5696,VALID,74,VALID,0,
2012-02-11, 03:09:05,VALID,998.799,VALID,0,VALID,93.6612,VALID,0,VALID,22.5289,VALID,74,VALID,0,
2012-02-11, 03:10:05,VALID,998.81,VALID,0,VALID,93.6841,VALID,0,VALID,22.5094,VALID,74,VALID,0,
2012-02-11, 03:11:05,VALID,998.779,VALID,0,VALID,93.8214,VALID,0.104696,VALID,22.5289,VALID,74,VALID,0,
2012-02-11, 03:12:05,VALID,998.794,VALID,0,VALID,93.8596,VALID,0,VALID,22.5289,VALID,74,VALID,0,
2012-02-11, 03:13:05,VALID,998.788,VALID,0,VALID,93.8977,VALID,0,VALID,22.5501,VALID,74,VALID,0,
2012-02-11, 03:14:05,VALID,998.791,VALID,0,VALID,93.9283,VALID,0,VALID,22.5501,VALID,74,VALID,0,
2012-02-11, 03:15:05,VALID,998.794,VALID,0,VALID,93.9435,VALID,0,VALID,22.5501,VALID,74,VALID,0,
2012-02-11, 03:16:05,VALID,998.801,VALID,0,VALID,94.0503,VALID,0,VALID,22.5892,VALID,74,VALID,0,
2012-02-11, 03:17:05,VALID,998.863,VALID,0,VALID,94.0656,VALID,0,VALID,22.6087,VALID,74,VALID,0,
2012-02-11, 03:18:05,VALID,998.848,VALID,0,VALID,94.0808,VALID,0,VALID,22.5874,VALID,74,VALID,0,
2012-02-11, 03:19:05,VALID,998.847,VALID,0,VALID,94.119,VALID,0,VALID,22.6299,VALID,74,VALID,0,
2012-02-11, 03:20:05,VALID,998.872,VALID,0,VALID,94.18,VALID,0,VALID,22.6689,VALID,90,VALID,0,
2012-02-11, 03:21:05,VALID,998.86,VALID,0,VALID,94.18,VALID,0,VALID,22.6672,VALID,90,VALID,0,
2012-02-11, 03:22:05,VALID,998.852,VALID,0,VALID,94.1495,VALID,0,VALID,22.7062,VALID,97,VALID,0.879687,
2012-02-11, 03:23:05,VALID,998.867,VALID,0,VALID,94.0961,VALID,0,VALID,22.7062,VALID,91,VALID,0.448438,
2012-02-11, 03:24:05,VALID,998.837,VALID,0,VALID,94.0656,VALID,0,VALID,22.7274,VALID,83,VALID,1,
2012-02-11, 03:25:05,VALID,998.843,VALID,0,VALID,93.9893,VALID,0,VALID,22.7274,VALID,83,VALID,0.800781,
2012-02-11, 03:26:05,VALID,998.837,VALID,0,VALID,93.9206,VALID,0,VALID,22.7062,VALID,83,VALID,0.767578,
2012-02-11, 03:27:05,VALID,998.81,VALID,0,VALID,93.8825,VALID,0,VALID,22.7062,VALID,83,VALID,0.661328,
2012-02-11, 03:28:05,VALID,998.825,VALID,0,VALID,93.8214,VALID,0,VALID,22.6867,VALID,83,VALID,0.677734,
2012-02-11, 03:29:05,VALID,998.789,VALID,0,VALID,93.7833,VALID,0,VALID,22.7079,VALID,83,VALID,0.243359,
2012-02-11, 03:30:05,VALID,998.827,VALID,0,VALID,93.7299,VALID,0,VALID,22.6477,VALID,83,VALID,0.315234,
2012-02-11, 03:31:05,VALID,998.789,VALID,0,VALID,93.6231,VALID,0,VALID,22.6087,VALID,83,VALID,0.446094,
2012-02-11, 03:32:05,VALID,998.798,VALID,0,VALID,93.6612,VALID,0,VALID,22.6299,VALID,83,VALID,0.315625,
2012-02-11, 03:33:05,VALID,998.807,VALID,0,VALID,93.7604,VALID,0,VALID,22.6299,VALID,83,VALID,0.229687,
2012-02-11, 03:34:05,VALID,998.791,VALID,0,VALID,93.8291,VALID,0,VALID,22.6282,VALID,83,VALID,0.216016,
2012-02-11, 03:35:05,VALID,998.763,VALID,0,VALID,93.852,VALID,0,VALID,22.6282,VALID,83,VALID,0.144141,
2012-02-11, 03:36:05,VALID,998.726,VALID,0,VALID,93.8443,VALID,0,VALID,22.6087,VALID,83,VALID,0.269141,
2012-02-11, 03:37:05,VALID,998.71,VALID,0,VALID,93.8825,VALID,0,VALID,22.6104,VALID,83,VALID,0.31875,
2012-02-11, 03:38:05,VALID,998.716,VALID,0,VALID,93.8443,VALID,0,VALID,22.5501,VALID,83,VALID,0.331641,
2012-02-11, 03:39:05,VALID,998.73,VALID,0,VALID,93.9054,VALID,0,VALID,22.5714,VALID,333,VALID,0.734766,
2012-02-11, 03:40:05,VALID,998.721,VALID,0,VALID,93.9283,VALID,0,VALID,22.5892,VALID,332,VALID,0.803516,
2012-02-11, 03:41:05,VALID,998.749,VALID,0,VALID,93.9664,VALID,0,VALID,22.5696,VALID,332,VALID,0.600391,
2012-02-11, 03:42:05,VALID,998.736,VALID,0,VALID,93.9817,VALID,0,VALID,22.5501,VALID,332,VALID,0.326172,
2012-02-11, 03:43:05,VALID,998.719,VALID,0,VALID,94.0045,VALID,0,VALID,22.5714,VALID,332,VALID,0,
2012-02-11, 03:44:05,VALID,998.74,VALID,0,VALID,94.0045,VALID,0,VALID,22.5306,VALID,332,VALID,0,
2012-02-11, 03:45:05,VALID,998.735,VALID,0,VALID,93.9969,VALID,0,VALID,22.4916,VALID,332,VALID,0,
2012-02-11, 03:46:05,VALID,998.731,VALID,0,VALID,93.9893,VALID,0,VALID,22.4933,VALID,332,VALID,0,
2012-02-11, 03:47:05,VALID,998.741,VALID,0,VALID,93.974,VALID,0,VALID,22.4526,VALID,332,VALID,0,
2012-02-11, 03:48:05,VALID,998.747,VALID,0,VALID,94.0351,VALID,0,VALID,22.4543,VALID,332,VALID,0,
2012-02-11, 03:49:05,VALID,998.783,VALID,0,VALID,94.0808,VALID,0,VALID,22.4721,VALID,332,VALID,0,
2012-02-11, 03:50:05,VALID,998.758,VALID,0,VALID,94.1648,VALID,0,VALID,22.4933,VALID,332,VALID,0,
2012-02-11, 03:51:05,VALID,998.754,VALID,0,VALID,94.18,VALID,0,VALID,22.4916,VALID,332,VALID,0,
2012-02-11, 03:52:05,VALID,998.776,VALID,0,VALID,94.2182,VALID,0,VALID,22.5323,VALID,332,VALID,0,